Location: Balsareny
(41.8670°N, 1.8830°E)
Time: 04:53:34
(UTC+02:00)

Tiangong - Pass Details

Date: 27 June 2021
Orbit: 373 x 386 km, 41.5° (Epoch: 28 July)

Event Time Altitude Azimuth Distance (km) Brightness Sun altitude
Exits shadow 05:39:11 - 277° (W) 2,119 4.4 -6.8°
Reaches altitude 10° 05:40:58 10° 274° (W) 1,386 3.5 -6.6°
Maximum altitude 05:44:03 56° 195° (SSW) 453 1.1 -6.1°
Drops below altitude 10° 05:47:08 10° 115° (ESE) 1,391 4.3 -5.7°
Sets 05:49:13 0° 111° (ESE) 2,245 5.4 -5.4°
